Temp
2 2 2 2 2 1 1 1 1 1 1 1 1 1 1 1 1 1 1 1 1 1 1 1 1 2 2 2 2 2 2 3 3 3 3 3 3 3 3 3 4 4 4 4 4 4 4 4 5 5 5 5
1 1 1 1 1 1 1 1 1 1 1 1 1 1 1 1 1 1 1 1 1 1 1 1 1 1 1 2 2 2 2 2 2 3 3 3 3 3 3 3 3 3 3 4 4 4 4 4 4 4 4 5
1 1 0 0 0 0 0 0 0 1 1 1 1 1 1 1 1 1 1 1 1 1 1 1 1 1 1 1 1 1 2 2 2 2 2 2 3 3 3 2 3 3 3 3 3 4 4 4 4 4 4 4
1 0 0 0 0 0 0 0 0 0 0 0 0 0 0 0 0 0 0 0 0 0 0 0 0 0 1 1 1 1 1 1 1 2 2 2 2 2 2 2 2 2 2 3 3 3 3 3 4 4 4 4
0 0 0 0 -0 -0 -0 -0 -0 -0 -0 -0 -0 -0 -0 0 0 0 0 0 -0 -0 -0 0 0 0 0 0 0 0 0 1 1 1 1 1 1 2 2 2 2 2 2 2 2 3 3 3 3 3 3 4
0 0 0 -0 -0 -0 -0 -0 -0 -0 -0 -0 -0 -0 -0 0 0 0 0 0 0 -0 -0 -0 -0 -0 0 0 0 0 0 0 0 1 1 1 1 1 1 2 2 2 2 2 2 2 2 3 3 3 3 3
-0 -0 -0 -0 -0 -0 -0 -0 -0 -0 -0 -0 -0 -0 -0 -0 -0 -0 0 0 0 0 0 -0 -0 -0 -0 0 0 0 0 0 0 0 0 1 1 1 1 1 1 1 1 1 1 2 2 2 2 2 3 3
-0 -0 -0 -0 -0 -0 -0 -0 -0 -0 -0 -1 -1 -1 -1 -0 -0 -0 -0 0 0 0 0 0 0 -0 -0 -0 -0 0 0 0 0 0 0 0 1 1 1 1 1 1 1 1 1 1 1 1 2 2 2 2
-1 -1 -1 -0 -0 -0 -0 -1 -1 -1 -1 -1 -1 -1 -1 -1 -1 -1 -1 -0 -0 0 0 0 0 0 -0 -0 -0 0 0 0 0 -0 -0 -0 0 0 0 1 1 1 1 1 1 1 1 1 1 1 1 2
-1 -1 -1 -1 -1 -1 -1 -1 -1 -1 -1 -1 -1 -1 -1 -1 -1 -1 -1 -1 -0 -0 -0 0 0 0 0 -0 -0 0 0 0 0 0 -0 -0 -0 -0 0 0 0 0 0 0 0 0 1 1 1 1 1 1
-1 -1 -1 -1 -1 -1 -1 -1 -1 -1 -1 -1 -1 -1 -1 -1 -1 -1 -1 -1 -1 -1 -0 -0 0 0 0 0 0 0 0 -0 0 0 0 -0 -0 -0 -0 0 0 0 0 0 0 0 0 0 0 0 0 0
-1 -1 -1 -1 -1 -1 -1 -1 -1 -1 -1 -1 -1 -1 -1 -1 -1 -1 -1 -1 -1 -1 -1 -0 -0 -0 0 0 0 0 0 -0 -0 -0 -0 -0 -0 -0 -0 -0 -0 0 -0 -0 0 0 -0 -0 0 0 0 0
-2 -2 -2 -2 -2 -2 -2 -2 -2 -2 -2 -2 -2 -2 -2 -2 -2 -2 -2 -1 -1 -1 -1 -1 -1 -0 -0 -0 0 0 0 -0 -0 -0 -0 -0 -0 -0 -0 -0 -0 -0 -0 -0 -0 -0 -0 -0 -0 -0 -0 -0
-2 -2 -2 -2 -2 -2 -2 -2 -2 -2 -2 -2 -2 -2 -2 -2 -2 -2 -2 -2 -1 -1 -1 -1 -1 -1 -1 -0 -0 0 0 -0 -0 -0 -0 -0 -1 -1 -1 -1 -1 -1 -1 -1 -1 -1 -1 -1 -1 -1 -0 -0
-2 -2 -2 -2 -2 -2 -2 -2 -2 -2 -2 -2 -2 -2 -2 -2 -2 -2 -2 -2 -1 -1 -1 -1 -1 -1 -1 -1 -1 -0 -0 -0 -0 -1 -1 -1 -1 -1 -1 -1 -1 -1 -1 -1 -1 -1 -1 -1 -1 -1 -1 -1
-2 -2 -2 -2 -2 -2 -2 -2 -2 -2 -2 -2 -2 -2 -2 -2 -2 -2 -2 -2 -2 -1 -1 -1 -1 -1 -1 -1 -1 -1 -1 -1 -1 -1 -1 -1 -1 -2 -2 -2 -2 -1 -2 -2 -2 -2 -2 -1 -1 -1 -1 -1
-2 -2 -2 -2 -3 -3 -3 -3 -3 -3 -3 -2 -2 -2 -2 -2 -2 -2 -2 -2 -2 -1 -1 -1 -1 -1 -1 -2 -2 -1 -1 -1 -1 -1 -1 -2 -2 -2 -2 -2 -2 -2 -2 -2 -2 -2 -2 -2 -2 -2 -2 -2
-3 -3 -3 -3 -3 -3 -3 -3 -3 -3 -3 -3 -2 -2 -2 -2 -2 -2 -2 -2 -2 -2 -2 -2 -2 -2 -2 -2 -2 -2 -2 -2 -2 -2 -2 -2 -2 -3 -3 -3 -3 -3 -3 -3 -3 -3 -3 -2 -3 -2 -2 -2
-3 -3 -3 -3 -3 -3 -3 -3 -3 -3 -3 -3 -3 -2 -2 -2 -2 -2 -2 -2 -2 -2 -2 -2 -2 -2 -2 -2 -2 -2 -2 -2 -3 -3 -2 -2 -2 -3 -3 -3 -3 -4 -4 -4 -4 -4 -4 -3 -3 -3 -3 -3
-4 -4 -3 -3 -3 -3 -3 -3 -3 -3 -3 -3 -3 -2 -2 -2 -2 -2 -2 -2 -2 -2 -2 -2 -3 -3 -3 -3 -3 -3 -3 -3 -3 -3 -3 -4 -3 -3 -3 -4 -4 -4 -4 -4 -4 -4 -4 -4 -4 -4 -4 -4
-4 -4 -4 -3 -3 -3 -3 -3 -3 -3 -3 -3 -3 -2 -2 -2 -2 -2 -2 -2 -3 -3 -3 -3 -3 -3 -4 -4 -4 -4 -4 -4 -4 -4 -4 -4 -4 -4 -4 -4 -4 -4 -4 -4 -4 -5 -5 -5 -5 -5 -5 -5
-4 -4 -4 -4 -4 -3 -3 -3 -3 -3 -3 -3 -3 -3 -3 -3 -3 -3 -3 -3 -3 -3 -3 -3 -4 -4 -4 -4 -4 -4 -4 -4 -5 -5 -4 -4 -5 -5 -4 -4 -4 -5 -5 -4 -4 -5 -5 -6 -6 -6 -6 -6
-4 -4 -4 -4 -4 -3 -3 -3 -3 -3 -3 -3 -3 -3 -3 -3 -3 -3 -3 -3 -4 -4 -4 -4 -4 -4 -4 -4 -4 -4 -4 -5 -5 -5 -5 -5 -5 -5 -5 -5 -5 -5 -5 -5 -5 -5 -5 -6 -6 -6 -6 -6
-4 -4 -4 -4 -4 -4 -4 -4 -4 -4 -3 -3 -3 -4 -4 -4 -4 -4 -4 -4 -4 -4 -4 -4 -4 -4 -5 -5 -5 -5 -5 -5 -5 -5 -5 -5 -5 -5 -5 -5 -6 -6 -6 -5 -5 -5 -5 -6 -6 -7 -7 -7
-4 -4 -4 -4 -4 -4 -4 -4 -4 -4 -4 -4 -4 -4 -4 -4 -4 -4 -5 -5 -5 -5 -5 -5 -5 -5 -5 -5 -5 -5 -5 -5 -6 -6 -6 -6 -6 -6 -6 -6 -6 -7 -6 -6 -6 -6 -6 -6 -6 -7 -7 -7
-5 -4 -4 -4 -4 -4 -4 -4 -4 -5 -5 -5 -5 -5 -5 -5 -5 -5 -5 -5 -5 -5 -5 -5 -5 -6 -6 -6 -6 -6 -6 -6 -7 -7 -7 -7 -7 -7 -7 -7 -7 -8 -7 -7 -7 -7 -6 -6 -7 -8 -8 -8
-5 -4 -5 -5 -5 -5 -5 -5 -5 -5 -6 -6 -6 -6 -6 -6 -5 -5 -5 -6 -6 -6 -6 -6 -6 -6 -6 -6 -7 -7 -7 -7 -7 -7 -8 -8 -8 -8 -7 -7 -8 -8 -8 -8 -8 -8 -7 -7 -7 -7 -8 -9
-5 -4 -5 -5 -5 -6 -6 -6 -6 -6 -7 -7 -7 -6 -6 -6 -6 -6 -6 -6 -6 -6 -6 -6 -7 -7 -7 -7 -7 -7 -7 -7 -8 -8 -8 -8 -8 -8 -8 -8 -8 -9 -9 -9 -9 -9 -8 -8 -8 -7 -8 -9
-5 -4 -5 -5 -5 -6 -6 -6 -7 -7 -7 -8 -8 -7 -7 -7 -7 -7 -7 -7 -7 -7 -7 -7 -7 -7 -7 -7 -8 -8 -8 -8 -8 -8 -8 -9 -9 -9 -9 -9 -9 -9 -9 -9 -10 -10 -9 -9 -9 -9 -9 -10
-5 -5 -5 -5 -5 -6 -7 -7 -7 -8 -8 -8 -8 -8 -8 -8 -8 -8 -8 -8 -8 -8 -8 -8 -8 -8 -8 -8 -8 -8 -8 -8 -9 -9 -9 -9 -9 -9 -9 -9 -9 -9 -10 -10 -10 -10 -10 -10 -10 -10 -10 -10
-6 -6 -6 -7 -7 -7 -7 -7 -8 -8 -8 -8 -8 -8 -8 -8 -8 -9 -9 -9 -9 -9 -9 -9 -9 -9 -8 -8 -9 -9 -9 -9 -9 -9 -9 -10 -10 -10 -10 -10 -10 -9 -10 -10 -10 -11 -11 -11 -11 -11 -11 -11
Height
3126 3126 3125 3124 3124 3123 3122 3121 3121 3120 3119 3118 3117 3116 3115 3115 3114 3113 3112 3111 3111 3110 3109 3108 3107 3107 3106 3105 3105 3104 3104 3103 3103 3102 3102 3101 3101 3100 3100 3099 3099 3098 3098 3097 3097 3097 3098 3099 3100 3100 3101 3102
3124 3124 3123 3123 3122 3121 3121 3120 3119 3118 3117 3116 3115 3114 3113 3112 3111 3110 3110 3109 3108 3107 3106 3105 3104 3103 3103 3102 3101 3101 3100 3099 3099 3099 3098 3098 3097 3097 3097 3096 3096 3096 3095 3095 3094 3094 3094 3095 3096 3096 3097 3097
3123 3122 3122 3121 3121 3120 3119 3118 3117 3116 3115 3113 3112 3111 3110 3109 3108 3107 3107 3106 3105 3104 3103 3102 3101 3100 3099 3099 3098 3097 3097 3096 3095 3095 3094 3094 3094 3093 3093 3093 3092 3092 3092 3092 3092 3091 3090 3090 3091 3092 3093 3093
3122 3121 3120 3120 3119 3118 3117 3116 3115 3114 3112 3111 3110 3109 3108 3107 3105 3104 3104 3103 3102 3100 3099 3098 3097 3097 3096 3095 3095 3094 3093 3093 3092 3091 3091 3090 3090 3090 3090 3090 3089 3088 3088 3088 3088 3088 3087 3087 3087 3087 3088 3089
3120 3120 3119 3118 3117 3116 3115 3114 3113 3111 3110 3109 3108 3107 3105 3104 3103 3101 3100 3100 3099 3097 3096 3095 3094 3093 3092 3092 3091 3091 3090 3089 3088 3088 3087 3087 3086 3086 3086 3086 3085 3085 3084 3084 3084 3084 3084 3084 3083 3083 3084 3084
3119 3118 3117 3116 3115 3114 3113 3112 3111 3109 3108 3107 3106 3104 3103 3102 3100 3099 3098 3096 3095 3094 3093 3092 3091 3090 3089 3088 3087 3087 3086 3085 3085 3084 3083 3083 3082 3082 3082 3082 3081 3081 3080 3080 3080 3080 3080 3080 3079 3079 3079 3079
3117 3116 3115 3114 3113 3112 3111 3110 3108 3107 3106 3105 3104 3102 3101 3099 3098 3096 3095 3094 3092 3091 3090 3089 3087 3086 3085 3084 3083 3082 3082 3081 3081 3080 3079 3079 3078 3078 3078 3078 3077 3077 3077 3076 3075 3075 3075 3075 3075 3075 3074 3075
3115 3114 3113 3112 3111 3110 3109 3108 3106 3105 3104 3103 3102 3100 3098 3097 3095 3094 3092 3090 3089 3088 3087 3085 3084 3082 3081 3080 3079 3078 3078 3077 3076 3076 3075 3074 3074 3074 3074 3073 3073 3073 3073 3072 3072 3071 3071 3071 3070 3070 3070 3070
3112 3111 3110 3109 3109 3107 3106 3105 3104 3103 3102 3101 3099 3097 3096 3094 3092 3091 3089 3087 3086 3084 3083 3081 3080 3079 3077 3076 3075 3074 3073 3072 3072 3071 3071 3070 3069 3069 3069 3069 3069 3069 3068 3068 3067 3067 3066 3066 3066 3066 3065 3065
3109 3109 3108 3107 3106 3105 3104 3103 3101 3100 3099 3098 3096 3094 3093 3091 3089 3088 3086 3084 3082 3080 3079 3077 3076 3075 3073 3072 3071 3070 3069 3068 3067 3066 3066 3065 3065 3064 3064 3064 3064 3064 3064 3063 3063 3062 3062 3061 3061 3061 3061 3060
3107 3106 3105 3104 3103 3102 3101 3100 3098 3097 3096 3094 3093 3091 3089 3088 3086 3084 3082 3080 3078 3076 3075 3073 3072 3070 3069 3067 3066 3065 3064 3063 3062 3061 3060 3060 3059 3059 3059 3059 3059 3058 3058 3058 3058 3058 3057 3057 3056 3056 3056 3056
3104 3104 3103 3102 3100 3099 3098 3097 3095 3094 3092 3091 3089 3087 3086 3084 3082 3081 3079 3077 3074 3073 3071 3069 3067 3065 3064 3063 3061 3060 3059 3058 3057 3056 3055 3054 3054 3053 3053 3053 3053 3053 3053 3052 3052 3052 3052 3052 3051 3051 3051 3051
3102 3101 3100 3099 3098 3097 3095 3094 3092 3090 3089 3087 3085 3084 3082 3080 3078 3077 3075 3073 3070 3069 3067 3065 3063 3061 3059 3058 3056 3056 3055 3053 3052 3051 3050 3049 3048 3047 3047 3047 3047 3047 3047 3047 3046 3046 3047 3046 3046 3046 3046 3046
3100 3099 3097 3096 3095 3094 3092 3091 3089 3087 3086 3084 3082 3080 3078 3076 3074 3072 3070 3068 3066 3064 3063 3061 3059 3057 3055 3053 3051 3051 3050 3048 3047 3046 3045 3044 3043 3042 3041 3041 3041 3040 3041 3041 3041 3040 3041 3041 3041 3041 3041 3041
3098 3096 3095 3094 3093 3091 3089 3087 3086 3084 3083 3081 3079 3076 3074 3072 3070 3068 3066 3064 3062 3060 3058 3056 3054 3052 3050 3048 3046 3045 3045 3043 3042 3041 3040 3038 3037 3036 3036 3035 3034 3034 3034 3035 3034 3034 3035 3035 3035 3035 3035 3035
3096 3094 3093 3091 3090 3088 3086 3084 3082 3081 3079 3077 3075 3072 3070 3068 3066 3064 3061 3059 3057 3055 3054 3052 3050 3048 3046 3044 3042 3040 3039 3038 3037 3036 3035 3033 3032 3031 3030 3030 3029 3028 3028 3028 3028 3027 3028 3028 3029 3029 3029 3029
3093 3091 3090 3088 3086 3084 3083 3081 3079 3077 3075 3073 3070 3068 3066 3064 3061 3059 3057 3055 3053 3051 3049 3047 3045 3044 3041 3039 3037 3035 3034 3033 3032 3031 3030 3028 3026 3026 3025 3024 3024 3022 3022 3022 3022 3021 3021 3021 3022 3022 3023 3024
3089 3088 3086 3085 3083 3081 3079 3077 3075 3073 3071 3068 3066 3064 3061 3059 3057 3054 3052 3050 3048 3046 3044 3042 3040 3039 3036 3034 3032 3030 3029 3027 3027 3025 3024 3023 3022 3021 3020 3019 3018 3017 3017 3016 3016 3016 3015 3015 3016 3016 3017 3017
3085 3084 3083 3081 3079 3077 3075 3073 3071 3068 3066 3063 3061 3058 3056 3053 3051 3049 3047 3044 3042 3040 3038 3037 3035 3033 3031 3029 3027 3025 3024 3022 3021 3020 3019 3018 3017 3016 3015 3014 3014 3013 3012 3011 3011 3011 3010 3010 3010 3010 3010 3011
3082 3080 3078 3077 3075 3073 3070 3068 3066 3063 3060 3057 3054 3052 3049 3047 3045 3043 3041 3039 3037 3035 3033 3031 3029 3028 3025 3023 3021 3020 3019 3017 3016 3014 3013 3013 3011 3010 3010 3009 3009 3008 3007 3006 3006 3006 3005 3005 3004 3004 3004 3004
3078 3076 3074 3072 3070 3068 3065 3062 3060 3057 3054 3051 3048 3046 3043 3041 3039 3037 3035 3033 3031 3029 3027 3025 3023 3022 3019 3017 3015 3014 3013 3012 3010 3008 3007 3007 3006 3004 3003 3003 3003 3002 3001 3000 3000 3000 3000 2999 2998 2998 2997 2997
3074 3072 3070 3067 3065 3062 3060 3056 3053 3051 3048 3045 3043 3040 3038 3035 3033 3031 3029 3027 3025 3023 3021 3019 3018 3016 3014 3011 3010 3008 3007 3006 3004 3003 3001 3000 3000 2998 2996 2996 2996 2995 2994 2993 2992 2993 2994 2994 2992 2992 2991 2991
3070 3067 3065 3062 3059 3056 3053 3050 3048 3045 3042 3040 3037 3035 3032 3030 3028 3026 3024 3022 3020 3018 3016 3014 3012 3010 3008 3006 3004 3003 3002 3000 2999 2997 2995 2994 2993 2992 2990 2989 2988 2988 2987 2985 2985 2986 2987 2987 2986 2986 2986 2986
3065 3062 3059 3057 3054 3051 3048 3045 3042 3040 3037 3034 3032 3030 3027 3025 3023 3021 3019 3017 3015 3013 3011 3009 3007 3005 3003 3001 2999 2997 2996 2995 2993 2992 2990 2988 2986 2986 2985 2984 2982 2981 2979 2978 2978 2979 2979 2979 2980 2980 2981 2980
3059 3056 3053 3050 3047 3045 3042 3039 3037 3034 3031 3028 3026 3024 3022 3020 3018 3016 3014 3012 3010 3008 3006 3004 3002 3000 2998 2996 2993 2992 2990 2989 2988 2986 2984 2983 2981 2980 2979 2979 2978 2976 2973 2971 2971 2972 2972 2973 2974 2974 2974 2974
3053 3050 3047 3044 3041 3038 3036 3033 3031 3028 3025 3022 3020 3018 3016 3014 3012 3010 3008 3007 3004 3002 3000 2998 2996 2995 2993 2990 2988 2986 2985 2984 2982 2981 2979 2977 2976 2974 2973 2972 2973 2971 2968 2965 2964 2963 2963 2965 2968 2968 2968 2967
3048 3045 3042 3038 3035 3032 3029 3028 3025 3022 3019 3017 3014 3012 3010 3008 3006 3004 3003 3001 2999 2997 2995 2993 2991 2989 2987 2985 2983 2981 2980 2979 2977 2976 2974 2972 2970 2969 2968 2967 2967 2966 2963 2961 2959 2956 2954 2955 2958 2960 2962 2961
3042 3039 3036 3033 3030 3027 3024 3022 3020 3017 3014 3012 3008 3006 3004 3002 3000 2998 2996 2995 2993 2991 2989 2988 2986 2984 2982 2980 2978 2976 2974 2973 2972 2970 2969 2967 2965 2963 2962 2961 2961 2960 2958 2956 2954 2951 2948 2947 2947 2950 2953 2954
3035 3032 3030 3027 3024 3022 3019 3016 3014 3012 3009 3007 3004 3001 2999 2997 2995 2993 2991 2989 2987 2986 2984 2982 2980 2978 2976 2975 2973 2971 2969 2968 2966 2965 2963 2961 2959 2957 2955 2954 2953 2953 2952 2951 2949 2946 2944 2942 2941 2941 2942 2943
3030 3026 3023 3021 3018 3016 3013 3011 3009 3006 3004 3002 3000 2998 2995 2992 2990 2988 2986 2984 2982 2980 2978 2976 2974 2972 2970 2969 2967 2965 2963 2962 2960 2959 2957 2955 2953 2951 2949 2947 2946 2946 2946 2945 2943 2941 2939 2938 2935 2935 2934 2934
3026 3022 3018 3015 3012 3009 3007 3005 3003 3002 2999 2996 2994 2992 2990 2987 2985 2982 2980 2978 2976 2975 2972 2970 2968 2966 2964 2962 2961 2959 2957 2955 2954 2952 2950 2948 2946 2945 2943 2941 2939 2939 2938 2937 2937 2935 2933 2932 2930 2929 2928 2927
Wind_Speed
17 16 16 16 15 15 15 16 17 17 17 18 18 18 18 18 19 19 20 20 21 21 22 22 23 23 24 24 25 25 26 26 26 26 26 26 27 27 28 29 30 31 31 32 32 31 30 29 28 27 25 24
16 14 14 15 15 15 16 17 18 19 19 19 20 20 20 21 21 21 22 22 23 23 23 24 24 24 24 25 26 26 27 27 27 27 27 27 27 27 27 28 29 30 31 31 32 32 32 31 29 29 28 27
14 13 14 15 16 17 17 18 19 19 20 20 21 21 22 22 23 23 23 23 24 25 25 25 25 25 25 25 26 26 27 27 28 28 27 27 28 27 27 27 28 29 30 31 32 32 33 32 31 30 29 29
13 14 15 16 16 17 17 18 18 19 20 20 21 22 23 24 24 24 24 24 24 25 26 26 27 26 26 26 26 26 27 27 28 28 28 28 28 28 28 28 28 29 30 30 31 31 32 33 33 32 31 31
14 15 15 16 16 16 16 17 17 18 19 20 21 22 23 23 24 25 25 25 25 25 26 27 28 28 28 28 27 27 27 28 28 29 29 29 29 29 29 29 29 30 31 31 31 31 32 33 34 34 33 32
15 15 15 15 14 14 15 16 16 17 18 19 20 21 22 23 24 24 25 25 25 26 26 27 28 29 29 29 29 29 28 29 29 29 30 30 30 30 31 31 31 31 31 32 33 33 33 33 34 35 35 34
14 14 14 13 13 14 15 16 17 18 19 20 21 22 23 24 24 25 25 26 26 26 26 27 28 28 29 30 30 30 30 30 30 30 31 31 31 32 32 32 32 32 32 33 34 34 34 34 35 36 36 36
13 13 12 12 13 14 16 17 19 20 21 22 23 24 25 26 26 27 27 27 27 27 28 28 28 29 29 30 30 31 31 31 32 32 32 32 33 33 33 33 33 33 34 34 34 35 35 36 36 36 37 37
13 12 12 13 14 15 17 18 20 21 22 24 25 26 27 28 28 29 29 29 30 29 29 30 30 29 30 30 31 31 32 32 33 33 33 33 34 34 34 34 34 34 34 35 35 35 36 36 36 37 37 38
13 13 13 14 15 16 18 19 21 23 24 26 27 28 29 30 31 31 31 32 32 32 32 32 31 31 31 31 32 32 32 33 34 34 34 35 35 35 35 35 35 35 35 35 35 35 36 36 36 37 37 38
14 14 14 16 17 18 20 22 24 26 27 29 30 31 32 33 33 33 33 34 34 34 34 34 34 34 33 33 33 33 33 34 34 35 35 36 36 36 36 36 36 36 36 36 36 36 36 36 36 36 37 37
16 16 16 17 19 21 23 25 26 28 30 31 33 34 35 35 35 35 35 35 36 36 36 36 36 36 36 35 35 35 34 35 35 36 36 36 37 37 37 37 37 37 37 37 37 36 36 36 37 37 37 37
17 18 18 20 22 24 26 27 29 31 32 34 35 36 37 37 37 36 36 37 37 38 38 38 38 38 38 38 38 37 36 36 36 37 37 37 37 38 38 37 38 38 37 37 38 37 37 37 37 37 37 37
19 20 21 23 26 28 29 30 31 33 34 35 37 37 38 38 38 38 38 38 38 39 39 39 39 39 39 39 40 38 37 37 37 37 38 38 38 38 38 38 38 38 38 37 38 38 37 37 37 37 37 38
21 23 25 27 29 31 32 33 34 35 37 38 39 39 40 40 40 40 40 39 39 39 39 39 39 39 40 40 41 40 39 39 38 38 38 39 39 39 39 39 39 39 39 38 38 39 38 38 38 38 38 38
23 25 28 31 32 34 35 36 37 38 39 40 41 42 42 42 42 42 41 41 40 40 39 39 39 39 40 41 41 41 40 40 40 39 39 40 40 40 40 40 40 41 40 39 39 40 39 39 39 38 38 38
26 29 31 33 35 36 37 38 39 41 42 43 44 44 44 44 44 44 43 42 42 42 41 41 41 40 41 42 42 42 42 42 41 41 41 41 41 41 42 41 41 42 42 41 41 41 41 41 40 40 40 39
30 32 34 35 37 38 40 41 42 44 45 46 46 46 46 46 46 45 45 45 44 44 44 43 42 42 42 43 43 43 43 44 43 43 43 43 43 42 43 43 42 43 43 43 43 42 42 42 41 41 41 40
32 34 35 37 39 41 43 44 46 47 48 49 49 48 48 48 48 47 47 47 46 46 45 45 44 43 43 44 44 44 44 44 44 44 44 44 44 44 44 44 44 44 45 45 45 44 44 44 43 43 42 42
34 35 37 39 42 44 46 48 49 50 51 51 51 51 50 50 49 48 48 47 46 45 44 44 43 43 43 43 43 43 43 44 44 44 45 45 45 46 45 45 45 45 46 46 46 46 46 45 45 45 43 43
35 38 40 42 45 47 48 50 51 51 52 52 52 52 51 50 49 48 46 45 44 43 42 42 41 41 41 42 43 43 43 43 43 44 45 45 45 47 47 47 47 46 47 48 48 47 47 47 47 47 46 45
38 41 43 45 47 48 50 51 52 53 53 53 52 52 50 49 47 46 44 42 42 41 40 40 40 40 40 41 41 42 42 42 43 44 45 45 45 47 48 48 48 48 49 50 50 49 48 47 48 48 47 47
42 44 46 48 49 50 51 52 53 53 53 53 52 50 48 47 45 43 42 41 41 40 39 39 39 39 39 40 41 41 41 41 42 43 44 45 45 46 47 48 49 49 50 51 51 51 49 48 49 49 49 49
46 48 50 51 52 52 52 52 53 53 53 52 50 48 46 44 43 42 41 40 40 39 38 38 38 38 38 39 40 40 40 40 40 41 42 43 44 45 45 46 48 49 50 52 52 51 51 50 50 49 49 50
50 52 53 54 55 54 53 53 53 53 51 50 48 46 44 43 42 42 41 39 39 38 38 37 37 37 37 38 39 39 39 39 39 39 40 41 42 43 43 44 44 46 49 51 52 52 52 51 50 49 50 51
52 54 56 57 56 56 54 53 53 52 50 48 46 45 44 43 42 42 40 39 39 38 38 37 37 37 37 38 38 38 38 37 38 38 38 39 40 41 42 42 41 42 46 49 51 52 53 52 49 48 50 50
53 55 57 57 56 55 54 53 51 50 48 47 46 45 44 43 43 42 41 40 39 39 38 38 38 38 38 38 38 39 38 38 37 37 38 38 40 40 41 41 40 40 43 46 48 50 53 52 51 49 48 48
57 58 58 57 55 54 53 52 50 48 46 45 46 45 45 44 44 43 42 41 40 40 39 39 39 39 39 39 39 39 39 39 38 39 39 39 40 41 42 41 40 40 41 42 44 47 50 51 52 51 49 48
61 62 61 59 57 54 52 51 48 46 45 44 44 45 45 44 44 44 43 42 42 41 41 41 40 40 40 40 39 39 39 39 39 39 40 40 41 43 43 44 43 42 41 41 42 46 48 49 51 51 50 50
62 63 62 60 58 54 50 49 47 45 45 44 43 44 44 44 43 43 42 42 42 41 41 41 41 41 41 40 40 39 39 39 38 39 40 41 42 42 43 45 45 44 42 42 43 45 46 48 50 50 50 52
60 60 59 57 56 53 50 48 46 45 45 45 44 43 43 42 41 41 41 41 41 40 40 40 41 41 41 41 39 39 39 38 38 39 39 40 41 42 43 45 46 45 44 44 44 45 46 47 49 50 50 52
Wind_Direction
297 298 298 299 300 302 302 301 301 299 299 297 296 296 296 295 294 294 293 292 291 291 290 289 288 287 286 285 284 282 281 280 278 277 275 275 273 273 272 272 271 272 272 273 273 272 270 268 266 264 259 254
296 298 299 301 303 303 303 303 301 301 301 301 301 301 300 299 298 297 295 294 293 292 291 290 288 287 285 284 283 282 281 280 279 278 277 276 275 274 273 272 271 270 270 270 270 270 270 268 266 265 263 260
293 297 299 300 302 304 304 304 304 305 306 306 307 306 305 303 301 300 299 298 297 295 294 292 290 288 286 284 283 282 281 280 279 278 277 276 276 275 274 273 272 270 269 268 268 268 269 268 267 264 263 262
292 296 299 301 303 305 306 307 309 310 310 311 311 309 307 305 304 303 302 301 299 298 297 295 294 292 290 288 286 284 282 281 280 280 279 277 276 276 275 274 273 272 270 268 267 266 267 267 267 266 263 262
293 296 299 301 304 307 309 311 313 314 314 314 313 310 308 307 306 304 303 301 300 299 297 296 295 294 292 291 289 287 285 284 282 282 281 280 279 278 277 276 275 274 273 272 270 267 266 265 266 265 264 262
294 296 298 301 305 310 312 315 316 316 316 316 313 311 310 309 308 306 304 302 300 298 296 295 294 293 292 291 290 289 287 286 284 284 282 282 281 280 279 278 277 277 276 276 275 273 270 268 266 265 264 262
294 296 298 302 307 310 313 315 315 315 316 315 314 313 313 313 312 310 309 306 303 300 297 295 293 293 292 291 290 290 289 287 286 285 284 283 282 281 281 280 279 278 278 277 277 276 275 273 271 269 267 265
292 294 296 300 305 309 312 315 315 315 315 314 313 313 313 313 313 313 311 310 308 305 302 298 295 293 292 291 290 289 288 287 286 286 285 284 283 282 281 280 280 279 278 277 277 277 276 276 274 273 271 269
287 287 291 297 304 310 313 315 315 315 316 315 314 313 312 312 311 311 311 310 309 308 306 303 300 296 294 291 290 289 288 287 286 285 284 283 283 282 281 280 279 279 278 277 276 276 275 275 275 274 273 271
280 283 290 298 304 310 313 316 316 317 317 317 316 315 313 312 311 310 309 309 308 308 307 305 303 300 297 294 292 290 288 287 286 285 284 283 282 281 281 280 279 278 277 277 276 275 275 275 274 274 273 272
278 285 293 299 305 310 313 315 316 317 317 317 316 315 314 312 311 310 309 308 307 306 306 305 304 302 300 297 294 292 290 289 287 286 285 284 283 282 282 281 280 279 278 277 276 275 275 274 273 273 272 272
282 289 295 300 305 309 313 315 316 317 317 316 316 315 314 312 311 309 308 307 306 305 305 304 304 303 301 299 297 295 293 291 289 288 287 286 285 284 284 283 282 281 280 279 278 277 275 274 273 272 271 270
285 291 297 301 305 309 312 315 316 316 316 315 315 314 313 312 310 309 307 306 305 305 304 304 303 302 301 300 298 297 295 293 292 291 290 289 288 287 286 286 284 283 282 281 280 279 277 276 274 272 271 270
286 292 298 302 305 310 312 314 315 315 314 314 314 314 313 312 310 308 307 305 304 304 303 303 302 301 300 299 298 298 296 295 294 292 292 291 290 289 288 287 286 285 284 283 282 280 279 277 275 274 272 270
288 293 298 303 307 310 313 314 314 313 313 313 313 313 312 311 309 308 306 305 303 302 302 301 300 299 299 298 297 297 297 296 295 294 293 293 292 291 290 289 289 288 287 286 284 283 281 279 277 275 274 272
292 296 300 304 308 311 312 312 312 312 312 312 312 311 311 310 308 306 305 303 302 301 300 299 298 297 297 296 295 296 296 296 295 295 294 293 293 292 292 291 290 289 289 288 286 285 284 282 280 278 276 274
297 301 304 306 308 309 310 310 310 310 310 311 310 310 309 308 306 305 303 301 300 299 298 297 296 295 294 293 293 294 294 294 294 294 293 292 292 292 292 291 291 290 289 289 288 287 285 284 283 281 278 276
302 304 306 307 308 308 308 308 308 308 309 309 309 308 308 306 305 303 301 299 298 296 295 293 292 291 291 290 290 291 291 291 292 292 291 291 291 290 290 290 290 290 289 289 288 287 286 285 284 282 280 278
304 305 306 307 307 307 308 308 308 308 308 308 308 307 307 305 304 302 300 298 296 294 293 291 290 289 288 288 287 288 288 288 289 289 289 289 289 289 289 289 289 288 288 288 287 286 286 285 284 283 282 280
305 306 306 306 307 307 308 308 308 308 308 308 308 307 306 305 303 301 299 297 295 293 292 290 289 288 287 287 286 286 286 287 287 287 287 288 288 288 288 288 288 287 287 286 286 286 285 286 285 285 284 283
305 305 306 306 307 307 308 309 309 309 309 308 307 306 305 303 302 300 298 296 294 293 292 291 290 289 288 287 287 287 287 287 287 287 288 288 288 289 289 288 288 288 287 287 286 286 286 286 286 285 285 284
305 306 306 307 307 309 310 311 311 310 309 307 306 304 303 301 299 298 296 295 294 293 292 291 290 289 289 288 288 288 288 288 288 288 289 289 288 288 289 289 289 289 288 287 287 287 287 286 286 285 285 284
307 308 309 310 311 312 313 312 311 310 308 305 304 302 300 298 297 296 295 294 294 293 293 292 291 290 290 289 289 289 289 289 289 289 289 289 289 288 289 290 290 289 289 288 287 287 287 286 285 285 285 284
308 309 311 313 313 313 313 312 310 308 305 303 301 299 297 295 294 294 294 293 293 293 292 291 291 290 290 290 290 290 290 290 290 290 290 290 289 289 289 289 290 290 289 288 288 287 287 285 285 285 285 284
310 312 313 314 314 313 313 311 308 305 302 300 298 296 294 294 293 293 292 292 291 291 290 290 290 290 290 290 290 291 291 292 292 292 292 291 291 291 290 289 290 290 289 289 288 288 286 285 285 285 284 282
312 314 315 315 314 313 312 310 307 303 300 298 296 294 293 293 292 292 291 290 290 289 289 289 289 289 289 290 290 291 292 292 293 292 292 292 292 292 291 291 291 290 289 289 290 289 288 287 286 284 283 282
312 314 315 315 314 312 310 308 304 301 298 296 294 293 293 292 292 291 290 290 289 289 289 289 289 289 289 289 290 291 291 292 292 292 292 291 291 290 290 290 291 290 289 290 291 292 291 291 288 285 283 281
313 314 314 314 313 310 307 304 300 297 294 293 292 292 292 292 292 291 290 290 289 289 289 288 288 287 287 288 289 289 290 291 291 291 290 289 289 288 288 288 288 288 289 290 292 291 291 292 291 290 286 282
315 314 312 311 310 307 303 300 297 293 291 289 289 290 290 290 290 289 288 288 288 288 288 287 287 287 287 287 288 288 289 289 289 289 288 287 287 288 288 288 287 287 288 289 289 288 290 291 291 291 289 285
314 312 311 309 307 305 301 297 294 292 290 288 286 286 286 286 285 285 285 285 286 286 286 286 286 286 286 286 287 287 287 288 288 287 287 287 286 287 287 287 287 287 287 286 285 286 288 289 289 290 289 286
312 310 309 308 306 305 303 299 295 292 289 287 286 285 284 284 283 283 283 283 283 283 282 282 283 284 285 286 286 287 287 288 288 288 288 288 287 287 286 286 286 287 286 285 285 285 284 284 285 286 286 284